Content
SEND FEEDBACK

Daily
Averages
Monthly
Summary
Philippines

ANGELES CITY, PHILIPPINES


Home > Asia > Philippines
Elevation: 490 feet     Latitude: 15 11N     Longitude: 120 33E

WEATHER
 
SELECT A DAY
Number of Records: 93,795;   Date Range: 2/13/97 - 9/16/14
 
SHARE

PRINT THIS DATA

[ ← Previous Day ]
WEATHER ALMANAC - APRIL 4, 2013
[ Next Day → ]
[ °C ]   °F
Weather ElementAverageHighLow
Temperature83.6 °F93.2 °F (1:00 pm)75.2 °F (4:00 am)
Dewpoint68.6 °F71.6 °F (7:00 am)64.4 °F (12:00 pm)
Humidity62.5 %89 % (7:00 am)38 % (3:00 pm)
Barometer29.79 in29.86 in (8:00 am)29.71 in (2:00 pm)
Wind Speed5.1 mph12.7 mph (4:00 pm)
Wind Gust34.5 mph (4:00 pm)
Weather ElementAverage
Visibility6.2 mi
Wind DirectionESE (106.8 °)

Weather ElementTotal
Precipitation---
Cooling Degree Days19.2 (Base 65)
Growing Degree Days34.2 (Base 50)
Averaged from 22 records on April 4, 2013
WEATHER CONDITIONS BREAKOUT
WIND DIRECTION BREAKOUT
WEATHER BY HOUR - APRIL 4, 2013
[ °C ]   °F
Local TimeTemperatureDewpointHumidityBarometerVisibilityWind DirectionWind SpeedGust SpeedPrecipitationEventsConditions
1:00 AM78.8 °F69.8 °F74 %29.83 in6.2 miVariable2.3 mph24.2 mphMostly Cloudy
2:00 AM77.0 °F69.8 °F78 %29.80 in6.2 miVariable3.5 mphMostly Cloudy
3:00 AM78.8 °F69.8 °F74 %29.80 in6.2 miVariable2.3 mphMostly Cloudy
4:00 AM75.2 °F69.8 °F83 %29.80 in6.2 miNNW (330°)3.5 mphMostly Cloudy
5:00 AM77.0 °F69.8 °F78 %29.80 in6.2 miWest (260°)2.3 mphMostly Cloudy
6:00 AM75.2 °F69.8 °F83 %29.83 in6.2 miWest (260°)4.6 mph21.9 mphMostly Cloudy
7:00 AM75.2 °F71.6 °F89 %29.83 in6.2 miVariable2.3 mphMostly Cloudy
8:00 AM82.4 °F71.6 °F70 %29.86 in6.2 miVariable2.3 mphMostly Cloudy
9:00 AM84.2 °F69.8 °F62 %29.86 in6.2 miVariable3.5 mphMostly Cloudy
10:00 AM87.8 °F69.8 °F55 %29.86 in6.2 miSSE (150°)5.8 mphMostly Cloudy
11:00 AM87.8 °F69.8 °F55 %29.83 in6.2 miSSE (160°)4.6 mphMostly Cloudy
12:00 PM91.4 °F64.4 °F41 %29.80 in6.2 miESE (110°)8.1 mphMostly Cloudy
1:00 PM93.2 °F66.2 °F41 %29.77 in6.2 miESE (120°)9.2 mphMostly Cloudy
2:00 PM93.2 °F66.2 °F41 %29.71 in6.2 miVariable4.6 mphScattered Clouds
3:00 PM93.2 °F64.4 °F38 %29.71 in6.2 miSSW (210°)10.4 mphScattered Clouds
4:00 PM91.4 °F68.0 °F46 %29.71 in6.2 miSSE (160°)12.7 mph34.5 mphScattered Clouds
6:00 PM87.8 °F66.2 °F49 %29.74 in6.2 miVariable6.9 mphScattered Clouds
7:00 PM84.2 °F66.2 °F55 %29.77 in6.2 miSSW (200°)5.8 mphMostly Cloudy
8:00 PM84.2 °F68.0 °F58 %29.77 in6.2 miSSW (200°)5.8 mphMostly Cloudy
9:00 PM80.6 °F68.0 °F65 %29.80 in6.2 miSouth (190°)5.8 mphMostly Cloudy
10:00 PM80.6 °F69.8 °F70 %29.80 in6.2 miVariable2.3 mph20.7 mphMostly Cloudy
11:00 PM80.6 °F69.8 °F70 %29.80 in6.2 miVariable3.5 mph24.2 mphMostly Cloudy
Hourly data recorded from RPLC, located miles away from Angeles City, Philippines







STORIES FROM OUR PARTNERS